TRA30Q EHEH-LIPE

Flight info

Callsign TRA30Q
Flight time 1h 23m
Altitude 37000
Route LNO Z283 RITAX UT27 ROUSY DCT GTQ DCT DEVDI DCT RIPUS DCT GERSA DCT SOSON DCT ODINA DCT TZO DCT ROBAS L153 OSBUL L995 RIPDU
Aircraft B738/M-SDE2E3FGHIRWXY/LB1

Departure

Time 2026-05-04 14:13
Airport Eindhoven Airport (EHEH)

Arrival

Time 2026-05-04 15:36
Airport Bologna Guglielmo Marconi Airport (LIPE)
Time Latitude Longitude Altitude Speed Heading
2026-05-04 13:52 51.45858 5.39051 74 ft 0 kts 125°
2026-05-04 14:06 51.45868 5.39026 60 ft 4 kts 122°
2026-05-04 14:06 51.45882 5.38989 69 ft 4 kts 111°
2026-05-04 14:07 51.45887 5.38950 63 ft 4 kts 71°
2026-05-04 14:07 51.45881 5.38933 67 ft 0 kts 34°
2026-05-04 14:10 51.45882 5.38935 74 ft 1 kts 34°
2026-05-04 14:10 51.45901 5.38955 66 ft 6 kts 34°
2026-05-04 14:10 51.45948 5.38988 74 ft 9 kts 355°
2026-05-04 14:10 51.46003 5.38912 74 ft 12 kts 304°
2026-05-04 14:11 51.46045 5.38815 70 ft 6 kts 305°
2026-05-04 14:11 51.46091 5.38705 69 ft 6 kts 296°
2026-05-04 14:11 51.46080 5.38649 67 ft 6 kts 216°
2026-05-04 14:12 51.46047 5.38612 71 ft 6 kts 214°
2026-05-04 14:12 51.45900 5.38446 73 ft 59 kts 215°
2026-05-04 14:12 51.44530 5.36882 218 ft 161 kts 218°
2026-05-04 14:13 51.43600 5.35815 849 ft 166 kts 216°
2026-05-04 14:13 51.42668 5.34789 1718 ft 164 kts 215°
2026-05-04 14:13 51.41685 5.33705 2320 ft 185 kts 215°
2026-05-04 14:13 51.40499 5.32499 2613 ft 219 kts 201°
2026-05-04 14:14 51.38960 5.32189 3252 ft 229 kts 172°
2026-05-04 14:14 51.35719 5.33740 4223 ft 260 kts 164°
2026-05-04 14:14 51.33971 5.34583 5020 ft 263 kts 164°
2026-05-04 14:15 51.30510 5.36270 6354 ft 267 kts 163°
2026-05-04 14:15 51.26888 5.38042 7861 ft 276 kts 163°
2026-05-04 14:16 51.23151 5.39867 9348 ft 284 kts 163°
2026-05-04 14:16 51.21243 5.40799 10107 ft 288 kts 163°
2026-05-04 14:17 51.17143 5.42803 10616 ft 331 kts 163°
2026-05-04 14:17 51.14889 5.43902 11056 ft 342 kts 163°
2026-05-04 14:17 51.10312 5.46132 12605 ft 346 kts 163°
2026-05-04 14:18 51.07998 5.47257 13361 ft 350 kts 163°
2026-05-04 14:18 51.03327 5.49524 14840 ft 354 kts 163°
2026-05-04 14:19 50.98481 5.50194 16387 ft 358 kts 195°
2026-05-04 14:19 50.96188 5.48571 17165 ft 366 kts 209°
2026-05-04 14:19 50.93997 5.46487 17901 ft 368 kts 208°
2026-05-04 14:19 50.91600 5.45101 18573 ft 369 kts 189°
2026-05-04 14:20 50.89038 5.44952 19238 ft 370 kts 173°
2026-05-04 14:20 50.86511 5.45787 19930 ft 371 kts 166°
2026-05-04 14:20 50.84017 5.46902 20530 ft 375 kts 161°
2026-05-04 14:21 50.79414 5.50825 21712 ft 382 kts 152°
2026-05-04 14:21 50.76944 5.52531 22296 ft 382 kts 164°
2026-05-04 14:21 50.74399 5.53742 22906 ft 383 kts 166°
2026-05-04 14:21 50.71862 5.54897 23538 ft 384 kts 166°
2026-05-04 14:22 50.69281 5.56082 24031 ft 386 kts 166°
2026-05-04 14:22 50.66697 5.57293 24497 ft 389 kts 166°
2026-05-04 14:22 50.64093 5.58538 24954 ft 391 kts 166°
2026-05-04 14:22 50.61479 5.59804 25387 ft 393 kts 166°
2026-05-04 14:23 50.56222 5.62370 26253 ft 398 kts 166°
2026-05-04 14:23 50.53559 5.63672 26709 ft 400 kts 166°
2026-05-04 14:23 50.50894 5.64974 27141 ft 402 kts 165°
2026-05-04 14:24 50.48198 5.66290 27542 ft 405 kts 166°
2026-05-04 14:24 50.45534 5.67588 27935 ft 407 kts 166°
2026-05-04 14:24 50.42812 5.68913 28340 ft 409 kts 166°
2026-05-04 14:24 50.40084 5.70239 28740 ft 411 kts 166°
2026-05-04 14:25 50.37334 5.71574 29113 ft 413 kts 166°
2026-05-04 14:25 50.31811 5.74251 29816 ft 418 kts 166°
2026-05-04 14:25 50.29031 5.75596 30160 ft 419 kts 166°
2026-05-04 14:26 50.26234 5.76938 30476 ft 419 kts 167°
2026-05-04 14:26 50.23434 5.77879 30852 ft 415 kts 175°
2026-05-04 14:26 50.20572 5.78374 31352 ft 412 kts 176°
2026-05-04 14:26 50.17738 5.78856 31846 ft 409 kts 176°
2026-05-04 14:27 50.14914 5.79361 32272 ft 407 kts 176°
2026-05-04 14:27 50.12104 5.79884 32630 ft 407 kts 176°
2026-05-04 14:27 50.09293 5.80417 32990 ft 406 kts 175°
2026-05-04 14:27 50.06509 5.81268 33410 ft 408 kts 167°
2026-05-04 14:28 50.03821 5.82654 33859 ft 407 kts 165°
2026-05-04 14:28 50.01141 5.84074 34230 ft 406 kts 165°
2026-05-04 14:28 49.98459 5.85482 34453 ft 408 kts 166°
2026-05-04 14:28 49.95759 5.86883 34660 ft 410 kts 166°
2026-05-04 14:29 49.90338 5.89685 35241 ft 411 kts 165°
2026-05-04 14:29 49.84891 5.92507 35631 ft 413 kts 166°
2026-05-04 14:30 49.82161 5.93911 35874 ft 414 kts 165°
2026-05-04 14:30 49.79467 5.95293 36110 ft 414 kts 166°
2026-05-04 14:30 49.73990 5.98093 36539 ft 415 kts 166°
2026-05-04 14:31 49.71247 5.99493 36768 ft 416 kts 166°
2026-05-04 14:31 49.65734 6.02301 36986 ft 420 kts 166°
2026-05-04 14:32 49.60128 6.05150 37000 ft 427 kts 165°
2026-05-04 14:32 49.54494 6.08012 37002 ft 426 kts 165°
2026-05-04 14:33 49.49809 6.10424 36978 ft 427 kts 162°
2026-05-04 14:33 49.44628 6.14990 36989 ft 435 kts 146°
2026-05-04 14:34 49.39939 6.20871 36998 ft 434 kts 145°
2026-05-04 14:34 49.35263 6.26741 36985 ft 433 kts 145°
2026-05-04 14:35 49.30576 6.32550 37014 ft 433 kts 146°
2026-05-04 14:35 49.25864 6.38345 36991 ft 434 kts 146°
2026-05-04 14:36 49.21190 6.44078 37005 ft 433 kts 146°
2026-05-04 14:36 49.16499 6.49819 37008 ft 431 kts 146°
2026-05-04 14:37 49.11818 6.55534 36996 ft 430 kts 146°
2026-05-04 14:37 49.07140 6.61232 37003 ft 430 kts 146°
2026-05-04 14:38 49.02465 6.66913 36994 ft 429 kts 146°
2026-05-04 14:38 48.97671 6.72298 37002 ft 424 kts 156°
2026-05-04 14:39 48.92341 6.76025 37012 ft 422 kts 160°
2026-05-04 14:39 48.86973 6.79594 36992 ft 425 kts 160°
2026-05-04 14:40 48.78844 6.85072 37000 ft 427 kts 160°
2026-05-04 14:40 48.73424 6.88748 37001 ft 427 kts 160°
2026-05-04 14:41 48.67983 6.92434 37003 ft 428 kts 160°
2026-05-04 14:42 48.57159 6.99740 36995 ft 427 kts 160°
2026-05-04 14:42 48.51720 7.03396 37003 ft 427 kts 160°
2026-05-04 14:43 48.46281 7.07044 37002 ft 428 kts 160°
2026-05-04 14:43 48.40839 7.10686 36978 ft 428 kts 160°
2026-05-04 14:44 48.35401 7.14317 36998 ft 427 kts 160°
2026-05-04 14:44 48.30004 7.17912 37001 ft 427 kts 160°
2026-05-04 14:45 48.24561 7.21527 36994 ft 428 kts 160°
2026-05-04 14:45 48.19115 7.25139 36982 ft 428 kts 160°
2026-05-04 14:46 48.13671 7.28741 36979 ft 427 kts 160°
2026-05-04 14:46 48.08233 7.32329 36991 ft 427 kts 160°
2026-05-04 14:47 48.02801 7.35906 36995 ft 426 kts 160°
2026-05-04 14:47 47.97370 7.39473 36978 ft 426 kts 160°
2026-05-04 14:48 47.91936 7.43035 36987 ft 426 kts 160°
2026-05-04 14:48 47.86500 7.46589 36985 ft 427 kts 160°
2026-05-04 14:49 47.81094 7.50118 36989 ft 427 kts 160°
2026-05-04 14:49 47.75741 7.53979 36984 ft 433 kts 150°
2026-05-04 14:50 47.71218 7.59978 36972 ft 443 kts 132°
2026-05-04 14:50 47.67539 7.67364 36985 ft 446 kts 130°
2026-05-04 14:51 47.63909 7.74830 36994 ft 447 kts 130°
2026-05-04 14:51 47.60231 7.82281 37000 ft 447 kts 130°
2026-05-04 14:52 47.56527 7.89699 36984 ft 448 kts 131°
2026-05-04 14:52 47.52807 7.97114 36984 ft 449 kts 131°
2026-05-04 14:53 47.49068 8.04548 36965 ft 450 kts 131°
2026-05-04 14:53 47.45331 8.11959 36969 ft 450 kts 131°
2026-05-04 14:54 47.41601 8.19340 36973 ft 449 kts 131°
2026-05-04 14:54 47.37856 8.26729 36977 ft 449 kts 131°
2026-05-04 14:55 47.34137 8.34050 36956 ft 447 kts 131°
2026-05-04 14:55 47.30408 8.41373 36970 ft 448 kts 131°
2026-05-04 14:56 47.26282 8.48099 36963 ft 436 kts 152°
2026-05-04 14:56 47.23563 8.50083 36972 ft 427 kts 166°
2026-05-04 14:56 47.20722 8.50973 36972 ft 421 kts 178°
2026-05-04 14:57 47.14892 8.51686 36965 ft 421 kts 178°
2026-05-04 14:57 47.09050 8.52448 36976 ft 422 kts 178°
2026-05-04 14:58 47.03181 8.53299 36940 ft 424 kts 177°
2026-05-04 14:58 46.97330 8.54144 36958 ft 424 kts 178°
2026-05-04 14:59 46.91444 8.54995 36993 ft 426 kts 178°
2026-05-04 15:00 46.82637 8.56266 37029 ft 425 kts 178°
2026-05-04 15:00 46.76731 8.57103 37028 ft 424 kts 178°
2026-05-04 15:01 46.67885 8.58373 37036 ft 427 kts 177°
2026-05-04 15:01 46.61943 8.59219 37035 ft 431 kts 178°
2026-05-04 15:02 46.55980 8.60068 37051 ft 434 kts 178°
2026-05-04 15:02 46.49966 8.60924 37065 ft 435 kts 178°
2026-05-04 15:03 46.43931 8.61779 37067 ft 436 kts 178°
2026-05-04 15:03 46.37896 8.62634 37068 ft 435 kts 178°
2026-05-04 15:04 46.31889 8.63486 37081 ft 433 kts 178°
2026-05-04 15:04 46.25901 8.64327 37076 ft 430 kts 178°
2026-05-04 15:05 46.19992 8.65156 37072 ft 428 kts 178°
2026-05-04 15:05 46.14072 8.66031 37074 ft 429 kts 173°
2026-05-04 15:06 46.11201 8.67296 37091 ft 435 kts 159°
2026-05-04 15:06 46.08576 8.69497 36953 ft 439 kts 146°
2026-05-04 15:06 46.06362 8.72520 36668 ft 437 kts 136°
2026-05-04 15:07 46.02344 8.78955 35919 ft 427 kts 136°
2026-05-04 15:07 46.00360 8.82124 35513 ft 424 kts 136°
2026-05-04 15:07 45.98382 8.85253 35144 ft 421 kts 136°
2026-05-04 15:07 45.96406 8.88354 34756 ft 418 kts 137°
2026-05-04 15:08 45.94444 8.91416 34387 ft 415 kts 137°
2026-05-04 15:08 45.92491 8.94455 34004 ft 413 kts 137°
2026-05-04 15:08 45.90547 8.97470 33575 ft 410 kts 137°
2026-05-04 15:08 45.88619 9.00460 33191 ft 406 kts 137°
2026-05-04 15:09 45.86705 9.03423 32815 ft 402 kts 137°
2026-05-04 15:09 45.84810 9.06353 32449 ft 399 kts 137°
2026-05-04 15:09 45.82931 9.09257 32065 ft 396 kts 136°
2026-05-04 15:10 45.79216 9.14988 31363 ft 390 kts 136°
2026-05-04 15:10 45.77405 9.17778 31018 ft 387 kts 136°
2026-05-04 15:10 45.73758 9.23388 30327 ft 381 kts 136°
2026-05-04 15:11 45.71956 9.26156 29953 ft 379 kts 136°
2026-05-04 15:11 45.70162 9.28910 29561 ft 376 kts 136°
2026-05-04 15:11 45.68391 9.31625 29231 ft 371 kts 136°
2026-05-04 15:11 45.66637 9.34311 28959 ft 371 kts 136°
2026-05-04 15:12 45.64837 9.37059 28723 ft 388 kts 136°
2026-05-04 15:12 45.62946 9.39944 28582 ft 406 kts 136°
2026-05-04 15:12 45.60975 9.42953 28329 ft 422 kts 136°
2026-05-04 15:12 45.58972 9.46012 28055 ft 421 kts 136°
2026-05-04 15:13 45.56911 9.48964 27768 ft 419 kts 143°
2026-05-04 15:13 45.54561 9.51389 27519 ft 416 kts 152°
2026-05-04 15:13 45.51979 9.53223 27261 ft 414 kts 160°
2026-05-04 15:13 45.49315 9.54804 27003 ft 414 kts 160°
2026-05-04 15:14 45.46647 9.56358 26743 ft 413 kts 160°
2026-05-04 15:14 45.44003 9.57906 26332 ft 409 kts 160°
2026-05-04 15:14 45.41391 9.59451 25881 ft 404 kts 160°
2026-05-04 15:14 45.38842 9.60970 25396 ft 401 kts 160°
2026-05-04 15:15 45.36284 9.62502 24916 ft 397 kts 160°
2026-05-04 15:15 45.33742 9.64025 24432 ft 394 kts 160°
2026-05-04 15:15 45.31226 9.65533 23973 ft 391 kts 159°
2026-05-04 15:16 45.26233 9.68522 22904 ft 386 kts 159°
2026-05-04 15:16 45.23768 9.69994 22418 ft 383 kts 159°
2026-05-04 15:16 45.19090 9.73454 21487 ft 379 kts 145°
2026-05-04 15:17 45.17121 9.75931 21039 ft 379 kts 136°
2026-05-04 15:17 45.13581 9.81403 20151 ft 374 kts 135°
2026-05-04 15:17 45.11837 9.84129 19707 ft 372 kts 135°
2026-05-04 15:18 45.10097 9.86833 19267 ft 370 kts 135°
2026-05-04 15:18 45.08360 9.89516 18811 ft 369 kts 135°
2026-05-04 15:18 45.06623 9.92186 18361 ft 368 kts 136°
2026-05-04 15:19 45.03157 9.97490 17394 ft 364 kts 136°
2026-05-04 15:19 45.01443 10.00105 16936 ft 361 kts 135°
2026-05-04 15:19 44.98071 10.05244 16067 ft 356 kts 135°
2026-05-04 15:20 44.96392 10.07798 15637 ft 353 kts 135°
2026-05-04 15:20 44.94725 10.10331 15212 ft 351 kts 135°
2026-05-04 15:20 44.93071 10.12844 14789 ft 348 kts 135°
2026-05-04 15:20 44.91424 10.15342 14368 ft 346 kts 135°
2026-05-04 15:21 44.89786 10.17825 13952 ft 344 kts 135°
2026-05-04 15:21 44.88162 10.20285 13475 ft 342 kts 135°
2026-05-04 15:21 44.84951 10.25145 12606 ft 336 kts 135°
2026-05-04 15:22 44.83363 10.27543 12190 ft 332 kts 135°
2026-05-04 15:22 44.82305 10.29083 11917 ft 329 kts 139°
2026-05-04 15:22 44.78602 10.32672 11166 ft 319 kts 150°
2026-05-04 15:23 44.76127 10.34865 10662 ft 315 kts 149°
2026-05-04 15:23 44.74316 10.36501 10547 ft 303 kts 149°
2026-05-04 15:23 44.73130 10.37579 10457 ft 297 kts 149°
2026-05-04 15:23 44.71426 10.39132 10318 ft 287 kts 149°
2026-05-04 15:24 44.68214 10.42081 10104 ft 269 kts 149°
2026-05-04 15:24 44.65118 10.44918 9579 ft 263 kts 149°
2026-05-04 15:25 44.63596 10.46332 9292 ft 262 kts 144°
2026-05-04 15:25 44.62441 10.48294 9014 ft 264 kts 118°
2026-05-04 15:25 44.61883 10.50734 8755 ft 264 kts 104°
2026-05-04 15:26 44.61372 10.55855 8178 ft 264 kts 100°
2026-05-04 15:26 44.61136 10.58419 7898 ft 265 kts 100°
2026-05-04 15:26 44.60629 10.63538 7321 ft 264 kts 100°
2026-05-04 15:27 44.60364 10.66089 7046 ft 263 kts 100°
2026-05-04 15:27 44.59882 10.71128 6498 ft 262 kts 90°
2026-05-04 15:28 44.60846 10.76049 5917 ft 262 kts 72°
2026-05-04 15:28 44.61418 10.78473 5643 ft 261 kts 73°
2026-05-04 15:28 44.62541 10.83287 5111 ft 257 kts 73°
2026-05-04 15:29 44.63084 10.85634 5033 ft 248 kts 73°
2026-05-04 15:30 44.65108 10.94680 4463 ft 226 kts 83°
2026-05-04 15:30 44.63649 11.00791 3923 ft 222 kts 115°
2026-05-04 15:31 44.62331 11.04498 3457 ft 200 kts 116°
2026-05-04 15:31 44.61714 11.06200 3232 ft 192 kts 116°
2026-05-04 15:32 44.59948 11.11089 2735 ft 188 kts 116°
2026-05-04 15:32 44.58784 11.14308 2227 ft 179 kts 115°
2026-05-04 15:33 44.57715 11.17277 1779 ft 162 kts 115°
2026-05-04 15:34 44.56233 11.21385 1164 ft 157 kts 115°
2026-05-04 15:34 44.55751 11.22728 930 ft 152 kts 115°
2026-05-04 15:34 44.54816 11.25338 494 ft 148 kts 120°
2026-05-04 15:35 44.53878 11.27939 158 ft 149 kts 120°
2026-05-04 15:35 44.53452 11.29118 124 ft 112 kts 116°
2026-05-04 15:35 44.53194 11.29838 128 ft 52 kts 117°
2026-05-04 15:36 44.53046 11.29827 128 ft 11 kts 236°
2026-05-04 15:36 44.53018 11.29775 127 ft 5 kts 198°
2026-05-04 15:36 44.52990 11.29750 125 ft 5 kts 243°
2026-05-04 15:37 44.52998 11.29701 129 ft 5 kts 289°
2026-05-04 15:37 44.53013 11.29653 127 ft 6 kts 296°
2026-05-04 15:37 44.53036 11.29589 127 ft 9 kts 297°
2026-05-04 15:37 44.53067 11.29504 128 ft 11 kts 296°
2026-05-04 15:38 44.53106 11.29397 126 ft 13 kts 295°
2026-05-04 15:38 44.53149 11.29270 126 ft 15 kts 295°
2026-05-04 15:38 44.53160 11.29181 126 ft 6 kts 218°
2026-05-04 15:38 44.53115 11.29146 128 ft 8 kts 207°
2026-05-04 15:39 44.53074 11.29126 127 ft 4 kts 168°
2026-05-04 15:39 44.53053 11.29160 129 ft 6 kts 123°
2026-05-04 15:39 44.53036 11.29205 128 ft 0 kts 117°